Lid_Strength_Index
5 5 5 4 4 3 3 4 4 4 5 5 5 4 3 2 2 2 2 0 4 7 5 4 4 7 8 8 10 6 7 7 8 12 12 12 13 11 13 12 13 12 14 12 12 15 19 7 7 10 8 6 5 5
5 5 5 5 4 3 3 3 3 3 3 4 5 5 4 2 2 2 4 1 1 5 5 2 1 2 4 5 7 6 7 7 7 10 9 11 13 12 13 16 9 13 11 12 11 13 8 6 7 5 5 6 5 5
5 5 5 5 4 3 3 3 3 3 3 4 4 5 5 4 2 2 3 3 4 5 5 4 4 2 1 3 2 7 6 5 6 5 8 9 12 10 14 14 12 10 8 10 9 10 8 6 5 4 4 5 4 4
5 5 5 5 5 4 3 3 3 3 3 4 4 4 4 5 3 2 3 1 3 5 8 5 2 4 1 1 2 3 4 4 5 4 7 8 11 8 11 11 12 10 9 9 10 9 7 6 5 4 4 4 4 3
6 5 5 5 5 4 3 3 3 3 3 3 4 4 4 5 5 3 2 1 1 5 7 5 2 2 1 1 3 4 5 6 6 7 8 8 6 7 7 8 11 8 9 12 12 8 8 7 4 4 5 4 4 4
6 6 5 5 5 5 4 3 3 3 3 3 3 4 4 5 5 5 4 0 0 2 7 9 2 3 3 2 2 4 5 5 5 6 7 6 4 7 9 11 8 6 5 5 7 5 5 4 4 4 4 4 4 4
6 6 6 5 5 5 4 3 3 3 3 3 3 4 4 4 3 4 5 2 1 1 6 8 7 4 2 3 3 4 3 4 5 6 7 7 7 6 9 13 8 6 5 5 4 5 6 5 6 4 4 4 4 4
6 6 6 5 5 5 5 3 3 3 3 3 3 3 3 3 4 5 3 3 1 3 4 9 8 6 3 6 7 3 5 5 6 6 6 7 7 7 10 7 6 6 6 6 5 5 5 5 4 4 4 4 4 4
6 6 6 6 5 5 5 3 3 3 3 3 3 3 2 2 4 5 4 4 3 3 7 7 10 12 3 5 5 5 4 8 5 7 7 7 7 10 9 8 7 6 7 6 5 5 5 6 5 5 5 4 5 4
7 7 7 6 5 5 5 4 3 3 3 3 2 2 4 4 3 4 5 7 7 5 5 7 4 8 4 5 7 7 6 7 10 8 6 8 8 6 5 5 5 5 5 5 7 7 6 6 5 5 5 4 4 4
8 8 7 7 6 5 5 4 4 3 3 1 3 3 2 3 3 4 8 9 8 9 6 5 5 6 3 8 8 6 8 7 11 9 8 9 9 6 4 5 4 5 5 5 5 5 4 4 5 5 5 5 4 4
8 7 7 6 6 5 5 5 5 3 4 4 5 4 4 5 6 8 8 7 8 8 6 6 5 4 5 3 7 7 9 8 12 5 9 10 7 5 4 4 4 4 5 5 4 4 4 4 5 5 4 4 4 4
7 7 7 6 6 5 5 5 5 4 4 3 6 8 7 6 11 10 11 8 8 7 6 6 7 5 5 5 7 8 11 11 7 10 10 8 6 4 4 3 4 4 4 4 4 4 3 4 4 4 3 3 3 3
7 7 7 6 6 4 5 5 5 5 4 6 6 12 8 9 8 7 7 6 4 5 6 5 7 7 5 8 8 11 9 8 13 14 13 7 5 4 4 3 3 4 4 4 5 4 4 4 4 3 3 2 2 3
7 7 7 6 5 5 5 4 4 3 4 6 5 11 8 5 4 4 4 4 3 3 4 6 6 6 8 9 8 9 11 14 12 12 7 5 4 4 4 3 3 3 4 4 4 4 4 4 4 4 3 3 2 2
7 6 5 5 5 5 4 4 4 3 4 5 5 7 5 6 6 5 4 5 3 3 3 5 7 9 9 8 11 12 13 14 12 9 5 4 4 4 3 3 3 3 3 3 4 3 3 4 4 3 3 4 3 3
6 5 5 5 4 4 4 5 4 7 8 7 7 4 5 5 5 5 4 4 2 4 6 7 9 10 6 9 12 11 13 11 6 4 3 3 4 3 3 3 2 2 3 3 4 3 3 2 3 4 5 4 4 3
6 4 5 5 4 4 4 5 5 6 8 5 7 5 4 4 4 4 3 3 3 4 5 7 5 9 11 13 10 9 7 4 3 3 3 2 2 2 2 2 2 2 2 2 2 3 3 3 4 4 4 4 4 5
6 5 5 5 5 6 6 5 4 7 6 4 4 3 4 4 3 3 3 2 2 2 4 5 7 8 8 6 6 5 4 4 5 5 3 2 2 2 3 3 2 2 2 2 2 2 3 3 3 3 3 3 4 4
5 5 5 4 4 7 8 6 3 6 7 5 4 4 4 4 3 3 3 3 3 4 6 7 7 5 5 4 3 3 3 3 4 6 5 3 3 3 3 3 3 2 2 2 2 4 2 3 3 2 3 4 4 4
5 4 4 4 5 5 7 6 6 5 5 6 4 4 4 3 4 4 4 3 5 6 6 5 4 3 2 2 2 2 2 3 4 5 5 5 4 3 4 3 3 4 4 3 3 3 3 3 2 2 2 3 3 4
5 4 6 5 6 6 7 5 6 5 6 6 6 6 6 6 5 5 3 5 5 5 4 4 3 3 3 3 2 2 2 3 3 4 6 5 5 5 4 4 3 4 4 4 4 4 3 2 2 1 2 3 3 3
5 6 8 7 9 10 10 5 9 7 9 7 6 7 7 6 5 2 5 4 4 3 3 3 2 2 2 2 2 2 3 3 4 4 4 4 3 3 4 4 3 4 4 4 3 3 2 6 3 2 2 2 2 3
4 7 9 9 10 11 8 9 8 8 7 8 8 9 7 6 4 6 7 5 4 3 3 3 3 3 2 2 3 3 3 3 3 3 3 3 4 3 3 3 2 2 3 2 3 2 1 2 5 2 2 3 3 3
9 9 9 11 8 10 10 9 8 8 9 8 9 9 7 5 8 7 8 6 4 3 2 2 3 3 3 3 3 2 2 3 4 4 3 3 4 3 4 3 3 2 2 2 3 2 2 2 2 2 2 2 3 4
12 8 9 9 8 9 8 10 9 8 8 8 8 6 6 7 10 9 6 5 5 4 3 3 3 4 3 2 3 3 3 2 2 4 3 2 3 4 4 4 4 3 1 1 2 2 3 2 2 2 2 3 7 4
13 10 6 5 6 6 7 6 6 7 8 9 7 7 7 10 9 6 4 2 4 2 1 2 2 3 3 3 2 2 2 2 2 2 2 2 3 2 3 4 4 2 1 1 2 2 2 3 2 2 2 2 3 4
9 8 10 8 8 6 9 8 8 9 8 5 6 9 11 9 8 5 4 2 1 1 2 2 2 2 2 2 2 2 2 2 1 1 2 2 2 3 2 1 1 8 1 1 1 1 1 1 2 2 2 2 3 3
9 7 8 9 8 8 8 8 8 6 5 6 8 9 7 6 5 4 2 2 2 3 3 4 4 2 2 1 1 2 2 2 4 4 4 5 4 3 1 1 1 0 1 2 10 6 3 2 2 1 2 2 2 2
8 7 9 9 10 10 8 6 7 5 4 5 5 5 5 4 3 2 2 2 3 3 3 3 3 3 3 3 3 2 2 1 2 3 4 4 4 2 1 1 1 0 0 0 1 2 8 4 5 1 2 2 2 2
6 7 8 8 8 6 6 4 4 4 5 5 4 5 5 4 4 6 6 5 3 3 3 3 3 3 3 3 4 4 4 2 2 1 1 1 1 1 0 0 0 -0 1 1 1 1 2 2 2 2 3 3 4 4
7 8 8 9 7 5 4 5 5 5 5 5 5 4 4 5 6 7 6 6 6 7 8 7 6 5 3 3 4 4 7 3 3 2 1 1 1 0 0 0 0 0 1 1 1 1 2 2 2 3 3 4 4 4
7 7 7 7 7 7 5 5 6 6 5 6 5 5 6 6 10 7 5 6 7 7 8 8 8 8 8 7 6 6 7 6 8 9 9 9 9 7 2 1 1 1 2 2 2 3 3 3 3 4 4 5 5 6